Location: Rio Tanui
(39.9167°N, 8.5167°E)
Time: 18:19:22
(UTC+00:00)

Daily predictions for brighter satellites

Satellite Brightness Start Highest point End
(mag) Time Altitude Azimuth Time Altitude Azimuth Time Altitude Azimuth
In-Cosmos 22 Rocket 4.3 17:12:24 10° S 17:18:13 83° E 17:24:04 10° N
Nadezhda 2 Rocket 4.5 17:14:37 10° N 17:20:43 64° E 17:26:45 10° SSE
SL-16 R/B 4.0 17:19:06 10° WSW 17:24:04 31° WNW 17:29:05 10° N
Delta 2 Rocket 4.4 17:21:50 10° WSW 17:24:51 29° SSW 17:27:47 10° SE
BREEZE-M DEB (TANK) 4.5 17:06:11 10° SW 17:29:49 86° SE 17:34:48 10° ENE
COSMOS 2428 3.3 17:25:08 10° S 17:30:17 37° ESE 17:35:27 10° NE
CZ-4C R/B 3.2 17:26:56 10° NNE 17:30:30 53° E 17:33:56 10° S
Cosmos 2333 4.3 17:26:19 10° SSW 17:31:55 88° WNW 17:37:37 10° NNE
Cosmos 968 Rocket 4.3 17:28:11 10° SSE 17:32:40 30° E 17:37:12 10° NE
Lacrosse 5 3.8 17:29:12 10° WNW 17:33:03 21° NNW 17:36:56 10° NNE
Cosmos 1633 2.8 17:30:15 10° SSW 17:33:33 65° W 17:36:53 10° N
IRIDIUM 114 4.4 17:34:23 10° N 17:39:32 58° E 17:44:39 10° SSE
SL-4 R/B 3.0 17:37:31 10° NNW 17:40:27 24° NNE 17:42:44 14° ENE
Atlas Centaur 2 3.8 17:40:26 10° WSW 17:47:19 42° S 17:55:02 10° ESE
CZ-4 R/B 4.4 17:44:22 10° SSE 17:48:28 86° E 17:52:36 10° NNW
IRIDIUM 103 4.3 17:43:30 10° N 17:48:44 71° E 17:53:55 10° S
Okean O Rocket 2.7 17:47:51 10° ESE 17:51:20 23° ENE 17:54:51 10° NNE
Cosmos 2322 3.7 17:46:25 10° SSW 17:52:07 78° ESE 17:57:51 10° NNE
Cosmos 1386 Rocket 4.4 17:46:14 10° N 17:52:12 59° E 17:58:11 10° SSE
Cosmos 1825 4.3 17:49:49 10° SW 17:53:02 28° WNW 17:56:17 10° NNW
CZ-4 R/B 2.4 17:50:48 10° SE 17:54:11 25° ENE 17:57:32 10° NNE
YAOGAN 1 2.8 17:52:03 10° SE 17:56:09 46° ENE 18:00:17 10° N
SKYMED 2 4.4 17:53:49 10° N 17:58:03 53° WNW 18:02:16 10° SSW
Cosmos 1745 Rocket 3.9 17:54:19 10° N 18:00:30 64° E 18:06:35 10° SSE
Okean 1-7 Rocket 3.6 17:56:31 10° S 18:00:50 56° E 18:05:14 10° NNE
RESURS DK-1 4.2 17:59:11 10° NW 18:02:55 34° WSW 18:06:38 10° S
Cosmos 2058 Rocket 3.4 18:01:10 10° NNW 18:05:35 70° W 18:10:00 10° S
SOICAL CYLINDER 4.2 18:02:54 10° SSW 18:05:45 83° ESE 18:07:29 21° NNE
Cosmos 2058 3.7 18:02:26 10° SSE 18:06:00 28° E 18:07:41 21° NE
PAYLOAD B 4.1 18:00:59 10° SSE 18:06:29 76° ENE 18:11:59 10° N
IRIDIUM 106 4.5 18:01:46 10° N 18:07:00 78° W 18:12:12 10° S
Cosmos 1844 Rocket 4.4 18:02:41 10° NW 18:07:43 36° WSW 18:12:44 10° S
USA 215 3.2 18:07:01 10° SE 18:13:31 79° NE 18:20:05 10° NW
Cosmos-2242 3.6 18:09:56 10° NNE 18:13:47 33° ENE 18:15:37 23° ESE
Cosmos 1340 3.8 18:10:27 10° NNW 18:13:58 45° W 18:17:28 10° SSW
Cosmos 1709 Rocket 4.0 18:12:16 10° N 18:18:16 55° E 18:24:14 10° SSE
PSLV R/B 3.6 18:15:06 10° SSE 18:18:46 85° WSW 18:22:31 10° NNW
Feng Yun 1-1 Rocket 4.4 18:15:24 10° SE 18:20:38 46° ENE 18:25:48 10° N
CZ-4B R/B 3.1 18:21:51 10° SSE 18:27:12 81° ENE 18:32:41 10° NNW
Spot 1 3.8 18:25:36 14° NNE 18:29:04 66° ESE 18:33:09 10° S
Cosmos 2219 Rocket 3.4 18:25:17 10° SW 18:30:31 41° WNW 18:35:48 10° N
Cosmos 883 Rocket 4.4 18:26:50 10° S 18:33:06 86° E 18:39:28 10° N
Cosmos 1602 Rocket 3.4 18:30:59 10° S 18:35:17 90° SSW 18:39:38 10° N
BlueWalker 3 3.1 18:34:35 10° NW 18:37:33 30° NNE 18:37:33 30° NNE
Cosmos 1400 Rocket 4.2 18:36:15 10° S 18:38:01 25° SSE 18:38:01 25° SSE
Cosmos 1814 Rocket 4.2 18:36:45 10° NNW 18:42:07 74° WSW 18:47:25 10° S
Cosmos 1606 3.6 18:39:07 10° NNW 18:42:49 48° W 18:46:29 10° SSW
SL-24 R/B - RUBIN 2 3.5 18:39:40 10° SSW 18:43:50 60° ESE 18:43:50 60° ESE
Cosmos 2237 Rocket 2.2 18:39:28 10° S 18:45:02 60° ESE 18:46:54 40° NE
IGS 5A 3.7 18:46:59 52° NNE 18:46:59 52° NNE 18:50:16 10° N
Lacrosse 5 rocket 3.9 18:44:48 10° W 18:47:14 17° WSW 18:49:44 10° SSW
Cosmos 1758 Rocket 3.7 18:45:51 10° SSW 18:50:09 72° W 18:54:32 10° N
NOSS 0 Rocket 3.9 18:45:07 10° SSW 18:51:22 87° WNW 18:56:14 18° NNE
Cosmos 1356 Rocket 3.6 18:47:52 10° SSW 18:51:49 65° W 18:53:48 27° N
Cosmos 2278 Rocket 2.1 18:47:44 10° NNW 18:53:20 60° ENE 18:53:56 56° E
SJ 16-02 3.7 18:49:57 10° S 18:50:16 12° S 18:50:16 12° S
Cosmos 1812 Rocket 3.6 18:50:46 10° N 18:55:13 76° W 18:59:37 10° S
Cosmos 1980 3.5 18:50:28 10° SSW 18:56:05 79° ESE 18:58:04 42° NNE
CSL-04 Debris 4.0 18:58:39 63° E 18:58:49 64° ENE 19:04:09 10° N
CSL-04 Rocket 3.9 19:01:24 51° NNE 19:01:24 51° NNE 19:05:48 10° N
BREEZE-M DEB (TANK) 3.7 18:56:45 10° WNW 19:01:02 77° NNE 19:04:17 42° ESE
Cosmos 1943 Rocket 3.8 19:04:47 10° N 19:06:56 20° NNE 19:06:56 20° NNE
COSMOS 2428 4.4 19:09:34 10° WSW 19:14:32 31° WNW 19:19:33 10° N
Lacrosse 5 4.3 19:16:19 10° NNW 19:17:53 11° N 19:18:14 11° N
SL-4 R/B 3.8 19:16:21 10° WNW 19:18:04 26° WNW 19:18:04 26° WNW
Cosmos 2208 Rocket 4.1 19:16:10 10° NNW 19:21:18 70° WSW 19:21:18 70° WSW
Milstar 3 4.5 19:16:17 10° SW 19:26:53 29° SSE 19:28:07 28° SSE
Okean O Rocket 3.4 19:23:37 10° SSW 19:27:29 31° W 19:31:25 10° NW
CZ-4 R/B 3.7 19:25:40 10° SSW 19:28:58 23° W 19:32:16 10° NW
Meteor 2-2 Rocket 4.5 19:23:41 10° NNW 19:29:20 67° W 19:30:33 52° SSW
Atlas Centaur 2 3.9 19:29:09 10° WSW 19:36:19 36° SSW 19:37:36 34° S
H-2A R/B 4.3 20:17:36 10° SW 21:02:17 - E 20:20:45 36° SSW
Cosmos 2237 Rocket 4.4 20:25:15 10° WSW 20:28:51 21° WNW 20:28:51 21° WNW
